Location: Boise
(43.6140°N, 116.2030°W)
Time: 16:37:41
(UTC-06:00)

ISS - Visible Passes

Search period start: 24 July 2017 00:00
Search period end: 03 August 2017 00:00
Orbit: 400 x 408 km, 51.6° (Epoch: 25 July)

Date Brightness Start Highest point End Pass type
(mag) Time Alt. Az. Time Alt. Az. Time Alt. Az.
24 Jul -1.4 00:41:31 10° WNW 00:44:14 24° NNW 00:46:58 10° NE visible
24 Jul -1.1 02:18:56 10° NW 02:21:28 20° N 02:24:00 10° ENE visible
24 Jul -2.9 03:55:18 10° NW 03:58:29 49° NNE 04:01:40 10° ESE visible
24 Jul -2.7 05:32:06 10° W 05:34:47 23° SW 05:37:27 10° SSE visible
24 Jul -3.7 22:12:00 10° SW 22:15:08 50° SE 22:18:19 10° ENE visible
24 Jul -1.9 23:48:48 10° W 23:51:44 30° NNW 23:54:41 10° NE visible
25 Jul -1.0 01:26:28 10° NW 01:28:54 19° N 01:31:22 10° NE visible
25 Jul -1.7 03:03:03 10° NW 03:07:43 20° ENE 03:09:03 10° E visible
25 Jul -3.6 04:41:15 27° W 04:42:36 43° SW 04:45:42 10° SE visible
25 Jul -2.6 22:56:09 10° W 22:59:17 44° NNW 23:02:25 10° NE visible
26 Jul -1.1 00:33:50 10° NW 00:36:20 20° N 00:38:50 10° NE visible
26 Jul -1.1 02:10:46 10° NW 02:12:03 18° NNW 02:12:03 18° NNW visible
26 Jul -3.6 22:03:38 10° WSW 22:06:52 72° NNW 22:10:08 10° NE visible
26 Jul -1.3 23:41:07 10° WNW 23:43:45 22° NNW 23:46:25 10° NE visible
27 Jul -1.2 01:18:26 10° NW 01:20:53 21° N 01:20:53 21° N visible
27 Jul -1.7 22:48:21 10° W 22:51:13 28° NNW 22:54:04 10° NE visible
28 Jul -1.1 00:25:56 10° NW 00:28:24 19° N 00:29:56 15° NE visible
28 Jul -0.6 02:02:26 10° NW 02:02:33 11° NW 02:02:33 11° NW visible
28 Jul -2.3 21:55:37 10° W 21:58:42 38° NNW 22:01:46 10° NE visible
28 Jul -1.1 23:33:20 10° NW 23:35:47 19° N 23:38:15 10° NE visible
29 Jul -1.2 01:10:08 10° NW 01:11:41 21° NNW 01:11:41 21° NNW visible
29 Jul -1.3 22:40:35 10° WNW 22:43:11 21° N 22:45:45 10° NE visible
30 Jul -1.6 00:17:46 10° NW 00:20:25 22° N 00:20:53 22° NNE visible
30 Jul -1.6 21:47:47 10° WNW 21:50:34 25° NNW 21:53:22 10° NE visible
30 Jul -1.3 23:25:17 10° NW 23:27:47 20° N 23:30:05 11° NE visible
31 Jul -1.1 01:01:42 10° NW 01:02:42 18° NW 01:02:42 18° NW visible
31 Jul -1.3 22:32:41 10° NW 22:35:08 19° N 22:37:35 10° NE visible
01 Aug -2.0 00:09:22 10° NW 00:11:56 29° N 00:11:56 29° N visible
01 Aug -1.3 21:39:56 10° WNW 21:42:28 20° N 21:45:01 10° NE visible
01 Aug -1.7 23:16:59 10° NW 23:19:42 24° NNE 23:21:11 17° NE visible
02 Aug -0.9 00:53:15 10° WNW 00:53:48 14° WNW 00:53:48 14° WNW visible
02 Aug -1.5 22:24:31 10° NW 22:27:03 20° N 22:29:35 10° ENE visible
